STARLINK-34830, 65405

Orbit data source: Space-Track

STARLINK-34830, 65405 is a payload satellite owned by SpaceX/Seattle (US) in LEO that was launched on Sun, 31 Aug 2025 UTC via an FALCON 9 launch vehicle from the Air Force Eastern Test Range (AFETR). Payload-class satellites include a variety of spacecraft equipped with specific instruments for various scientific and technological missions. These include communications satellites like Starlink; space stations such as the ISS; scientific satellites like the Hubble; Earth observation satellites from companies like Planet Labs, Umbra, and HawkEye 360; GPS; miniature CubeSats for education and research; and military/defense satellites.

Loading next visibility...
Identifier
65405, 2025-192B
Orbit
LEO
Country
Flag of USUS
Related business
Manufacturer
SpaceX/Seattle
Mission
Operational Commercial Communications
Bus & Motor
STARLINK V2MO, Unknown motor
Mass
575 kg wet, ~530 kg dry
Launch date (UTC)
2025-08-31 (10 months ago)
Launch vehicle
FALCON 9
Launch site
Air Force Eastern Test Range (AFETR)
Object type
Payload
Rocket body
Debris
Shape & HBR
Box + 2 Pan, 17.7 m
Radar Cross Section
36.964 m², Large (>1 m²)

Expand to show TLE details & history
Last TLE update: 14 hours ago

TLE from 14 hours ago
0 STARLINK-34830
1 65405U 25192B   26171.24978068  .00033211  00000-0  10768-2 0  9994
2 65405  53.1590 115.4694 0003425  84.5158 275.6234 15.31710690 45102
Epoch: 2026-06-20T05:59Z
TLE epoch observation values (Epoch: 2026-06-20T05:59:41.050Z)
Latitude
-0.00004°
Longitude
117.08122°
Altitude
471.379 km
Speed
7.632 km/s
True Right ascension
07h 41m 52s
True Declination
0° 00' 00"
Sunlit
Object was in daylight at epoch
Visualization orbit readout
Latitude
Unknown
Longitude
Unknown
Altitude
Unknown
Speed
Unknown
Apparent Right ascension
Unknown
Apparent Declination
Unknown
Sunlit
N/A
Visualization observer readout
Local Sidereal Time
07:13:08
Azimuth
Unknown
Elevation
Unknown
Doppler factor
Unknown
Orbital elements
Apogee altitude
473.311 km
Perigee altitude
468.619 km
Semi-major axis
6,849.102 km
Eccentricity
0.00034
Inclination
53.159°
RAAN
115.4694°
Arg. of periapsis
84.5158°
True anomaly
275.58434°
Mean anomaly
275.6234°
Eccentric anomaly
275.60387°
Mean motion
3.82906 °/min
Orbital period
94.02 mins
BSTAR
0.0010768
Loading maneuver chart data...
Computing Atmospheric mass density...
Loading historical data...
Loading historical data...
Loading historical data...
Loading historical data...
Loading historical data...
Loading historical data...
Loading historical data...

Documentation

Showing up to 5 results
|